McCook, NE

5:34 AM CDT on October 01, 2016 (GMT -0500)
McCook Municipal

Weather History for KMCK - August, 2013

Change the Weather History Date:

Thursday, August 15, 2013

  Actual Average Record
Temperature  
Mean Temperature 75 °F 74 °F  
Max Temperature 89 °F 88 °F 108 °F (1936)
Min Temperature 61 °F 61 °F 51 °F (1979)
Cooling Degree Days 10    
Growing Degree Days 26 (Base 50)    
Moisture  
Dew Point 57 °F    
Average Humidity 58    
Maximum Humidity 97    
Minimum Humidity 26    
Precipitation  
Precipitation T in 0.11 in 0.70 in (1978)
Month to date precipitation 1.04 1.75  
Year to date precipitation 8.72 16.32  
Sea Level Pressure  
Sea Level Pressure 29.99 in    
Wind  
Wind Speed 8 mph (North)    
Max Wind Speed 21 mph    
Max Gust Speed 36 mph    
Visibility 9 miles    
Events Thunderstorm    
T = Trace of Precipitation, MM = Missing Value Source: NWS Daily Summary

Daily Weather History Graph

Daily Weather History Graph

Search for Another Location

Airport or City:

Trip Planner

Search our weather history database for the weather conditions in past years. The results will help you decide how hot, cold, wet, or windy it might be!

Date:

Astronomy

Aug. 15, 2013 Rise Set
Actual Time 6:53 AM CDT 8:38 PM CDT
Civil Twilight 6:24 AM CDT 9:07 PM CDT
Nautical Twilight 5:49 AM CDT 9:43 PM CDT
Astronomical Twilight 5:11 AM CDT 10:20 PM CDT
Moon 3:58 PM CDT (8/15) 1:04 AM CDT (8/15)
Length of Visible Light 14h 43m
Length of Day
13h 45m
Waxing Gibbous, 64% of the Moon is Illuminated
Aug 15
Waxing Gibbous
Aug 20
Full
Aug 28
Last Quarter
Sep 5
New
Sep 12
First Quarter

Hourly Weather History & Observations

Time (CDT) Temp. Heat Index Dew Point Humidity Pressure Visibility Wind Dir Wind Speed Gust Speed Precip Events Conditions
12:53 AM 68.0 °F - 64.0 °F 87% 30.03 in 8.0 mi SW 10.4 mph - N/A   Clear
1:53 AM 68.0 °F - 64.0 °F 87% 29.98 in 8.0 mi SSW 8.1 mph - N/A   Clear
2:53 AM 66.9 °F - 64.0 °F 90% 29.97 in 8.0 mi SSW 4.6 mph - N/A   Clear
3:53 AM 64.9 °F - 63.0 °F 93% 29.98 in 7.0 mi South 5.8 mph - N/A   Clear
4:53 AM 63.0 °F - 61.0 °F 93% 29.99 in 5.0 mi SSW 3.5 mph - N/A   Clear
5:53 AM 63.0 °F - 62.1 °F 97% 30.04 in 4.0 mi NNW 8.1 mph - N/A   Mostly Cloudy
6:53 AM 64.0 °F - 54.0 °F 70% 30.02 in 10.0 mi NNW 17.3 mph 25.3 mph N/A   Partly Cloudy
7:53 AM 66.0 °F - 54.0 °F 65% 29.99 in 10.0 mi NE 8.1 mph - N/A   Scattered Clouds
8:53 AM 66.0 °F - 55.0 °F 68% 29.98 in 10.0 mi SW 6.9 mph - 0.00 in   Clear
9:53 AM 72.0 °F - 55.0 °F 55% 30.00 in 10.0 mi NW 10.4 mph - N/A   Partly Cloudy
10:53 AM 78.1 °F - 55.9 °F 46% 29.98 in 10.0 mi Variable 4.6 mph - N/A   Clear
11:53 AM 77.0 °F - 55.9 °F 48% 29.98 in 10.0 mi West 8.1 mph - N/A   Clear
12:53 PM 82.0 °F 82.0 °F 57.9 °F 44% 29.97 in 10.0 mi WNW 4.6 mph - N/A   Clear
1:53 PM 86.0 °F 84.2 °F 54.0 °F 33% 29.95 in 10.0 mi North 8.1 mph - N/A   Clear
2:53 PM 88.0 °F - 48.9 °F 26% 29.94 in 10.0 mi WNW 5.8 mph - N/A   Clear
3:53 PM 88.0 °F - 50.0 °F 27% 29.94 in 10.0 mi WNW 10.4 mph - N/A   Clear
4:39 PM 87.8 °F - 51.8 °F 29% 30.00 in 10.0 mi West 6.9 mph - N/A Thunderstorm Clear
4:53 PM 86.0 °F - 52.0 °F 31% 29.94 in 10.0 mi Variable 5.8 mph - N/A Thunderstorm Partly Cloudy
5:06 PM 77.0 °F - 55.4 °F 47% 30.01 in 9.0 mi NNE 20.7 mph 35.7 mph N/A   Mostly Cloudy
5:18 PM 75.2 °F - 55.4 °F 50% 30.01 in 10.0 mi NE 17.3 mph 24.2 mph N/A   Scattered Clouds
5:34 PM 77.0 °F - 55.4 °F 47% 30.02 in 10.0 mi NE 12.7 mph - N/A Thunderstorm Partly Cloudy
5:53 PM 81.0 °F 81.0 °F 57.0 °F 44% 29.96 in 10.0 mi NNE 15.0 mph - N/A Thunderstorm Partly Cloudy
6:05 PM 82.4 °F 81.4 °F 53.6 °F 37% 30.02 in 10.0 mi NE 11.5 mph - N/A   Partly Cloudy
6:15 PM 82.4 °F - 51.8 °F 35% 30.02 in 10.0 mi NE 8.1 mph - N/A Thunderstorm Thunderstorm
6:35 PM 80.6 °F - 51.8 °F 37% 30.02 in 10.0 mi Calm Calm - N/A   Partly Cloudy
6:53 PM 81.0 °F 80.7 °F 55.0 °F 41% 29.95 in 10.0 mi NNW 4.6 mph - 0.00 in   Partly Cloudy
7:53 PM 75.9 °F - 61.0 °F 60% 29.98 in 10.0 mi ENE 8.1 mph - N/A   Clear
8:53 PM 70.0 °F - 62.1 °F 76% 30.01 in 10.0 mi SE 5.8 mph - N/A   Clear
9:53 PM 66.9 °F - 61.0 °F 81% 30.04 in 10.0 mi NNE 3.5 mph - N/A   Clear
10:53 PM 66.9 °F - 63.0 °F 87% 30.05 in 9.0 mi NE 5.8 mph - N/A   Clear